KC3QLX Weather Reports


time (UTC)temp
C
wind
direction
speed
KPH
gust
KPH
rain 1hr
cm
rain 24hr
cm
rain mn
cm
humidity
%
barometer
mb
20260507000351 14 284 4.8 4.8 0.00 1.52 1.52 99 1008.1
20260506235848 15 342 4.8 4.8 0.00 1.52 1.52 99 1007.9
20260506235345 16 280 3.2 3.2 0.00 1.52 1.52 99 1007.8
20260506234840 16 293 0.0 0.0 0.00 1.52 1.52 99 1007.7
20260506234339 16 237 0.0 0.0 0.00 1.52 1.52 99 1007.6
20260506233836 16 196 0.0 0.0 0.00 1.52 1.52 99 1007.5
20260506233332 16 195 0.0 0.0 0.00 1.52 1.52 99 1007.6
20260506232829 16 192 0.0 0.0 0.00 1.52 1.52 99 1007.5
20260506232325 16 188 0.0 0.0 0.00 1.52 1.52 99 1007.5
20260506231821 16 176 0.0 0.0 0.00 1.52 1.52 99 1007.6
20260506231319 16 170 0.0 0.0 0.00 1.52 1.52 99 1007.3
20260506230816 16 174 0.0 0.0 0.00 1.52 1.52 99 1007.1
20260506230313 16 175 0.0 0.0 0.00 1.52 1.52 99 1007.2
20260506225809 16 175 0.0 0.0 0.00 1.52 1.52 99 1007.0
20260506225307 16 174 0.0 0.0 0.00 1.52 1.52 99 1007.1
20260506224803 16 146 0.0 0.0 0.00 1.52 1.52 99 1007.2
20260506224300 16 156 0.0 0.0 0.00 1.52 1.52 99 1007.1
20260506223756 16 157 0.0 0.0 0.00 1.52 1.52 99 1006.9
20260506223252 16 186 0.0 0.0 0.00 1.52 1.52 99 1006.9
20260506222749 16 217 0.0 0.0 0.00 1.52 1.52 99 1007.0
20260506222244 16 81 0.0 0.0 0.13 1.52 1.52 99 1007.1
20260506221737 16 183 0.0 0.0 0.30 1.52 1.52 98 1007.1
20260506221235 16 222 0.0 0.0 0.30 1.50 1.50 98 1007.0
20260506220731 16 233 1.6 1.6 0.30 1.47 1.47 97 1006.8
20260506220226 17 216 0.0 0.0 0.18 1.45 1.45 97 1006.8
20260506215723 17 207 1.6 3.2 0.00 1.42 1.42 96 1006.7
20260506215219 17 265 0.0 1.6 0.00 1.42 1.42 96 1006.6
20260506214716 17 244 0.0 0.0 0.00 1.42 1.42 96 1006.6
20260506214213 17 7 3.2 4.8 0.00 1.42 1.42 96 1006.6
20260506213711 17 6 0.0 0.0 0.00 1.42 1.42 95 1006.5
20260506213208 17 265 0.0 0.0 0.00 1.42 1.42 96 1006.4
20260506212705 17 19 0.0 0.0 0.00 1.42 1.42 96 1006.3
20260506212201 17 261 1.6 3.2 0.00 1.42 1.42 96 1006.4
20260506211656 17 338 1.6 1.6 0.00 1.42 1.42 97 1006.3
20260506211153 17 301 1.6 1.6 0.00 1.42 1.42 98 1006.2
20260506210650 17 2 3.2 4.8 0.00 1.42 1.42 99 1006.2
20260506210146 17 265 3.2 4.8 0.00 1.42 1.42 99 1006.1
20260506205644 17 211 1.6 1.6 0.00 1.42 1.42 99 1006.2
20260506205138 16 23 3.2 4.8 0.00 1.42 1.42 99 1006.4
20260506204637 16 243 0.0 1.6 0.00 1.42 1.42 99 1006.2
20260506204133 16 15 1.6 1.6 0.00 1.42 1.42 99 1006.1
20260506203632 16 305 6.4 9.7 0.00 1.42 1.42 99 1006.2
20260506203128 16 235 3.2 3.2 0.00 1.42 1.42 99 1006.3
20260506202626 16 52 0.0 1.6 0.00 1.42 1.42 99 1006.2
20260506202122 16 305 3.2 3.2 0.00 1.42 1.42 99 1006.2
20260506201619 16 348 3.2 4.8 0.00 1.42 1.42 99 1006.3
20260506201116 16 219 4.8 4.8 0.00 1.42 1.42 99 1006.4
20260506200612 16 251 3.2 3.2 0.00 1.42 1.42 99 1006.3
20260506200109 16 238 1.6 3.2 0.00 1.42 1.42 99 1006.5
20260506195605 16 260 0.0 1.6 0.00 1.42 1.42 99 1006.2
20260506195102 16 210 1.6 3.2 0.00 1.42 1.42 99 1006.4
20260506194600 16 337 1.6 1.6 0.00 1.42 1.42 99 1006.4
20260506194056 16 185 0.0 1.6 0.00 1.42 1.42 99 1006.6
20260506193554 16 226 0.0 0.0 0.00 1.42 1.42 99 1006.6
20260506193051 16 217 1.6 1.6 0.00 1.42 1.42 99 1006.3
20260506192547 16 194 0.0 0.0 0.00 1.42 1.42 99 1006.5
20260506192043 16 67 0.0 1.6 0.00 1.42 1.42 99 1006.3
20260506191540 16 4 1.6 3.2 0.00 1.42 1.42 99 1006.4
20260506191036 16 325 1.6 1.6 0.00 1.42 1.42 99 1006.6
20260506190533 16 91 0.0 0.0 0.00 1.42 1.42 99 1006.7
20260506190030 16 94 0.0 1.6 0.00 1.42 1.42 99 1006.5
20260506185527 16 209 0.0 0.0 0.00 1.42 1.42 99 1006.6
20260506185024 15 91 1.6 1.6 0.00 1.42 1.42 99 1006.7
20260506184521 15 283 0.0 1.6 0.00 1.42 1.42 99 1006.7
20260506184019 15 335 0.0 0.0 0.00 1.42 1.42 99 1006.9
20260506183514 15 268 1.6 1.6 0.00 1.42 1.42 99 1006.8
20260506183011 15 348 1.6 3.2 0.00 1.42 1.42 99 1007.0
20260506182509 15 306 1.6 1.6 0.00 1.42 1.42 99 1007.1
20260506182005 15 109 3.2 3.2 0.00 1.42 1.42 99 1007.2
20260506181503 15 96 0.0 1.6 0.00 1.42 1.42 99 1007.3
20260506181000 15 267 0.0 0.0 0.18 1.42 1.42 99 1007.0
20260506180456 15 225 0.0 0.0 0.18 1.42 1.42 99 1007.2
20260506175953 15 240 0.0 0.0 0.13 1.40 1.40 99 1007.1
20260506175450 15 347 1.6 1.6 0.13 1.40 1.40 99 1007.0
20260506174946 15 214 1.6 1.6 0.30 1.40 1.40 99 1007.1
20260506174444 15 201 0.0 0.0 0.30 1.37 1.37 99 1007.3
20260506173941 15 29 0.0 0.0 0.30 1.35 1.35 99 1007.1
20260506173438 15 243 0.0 0.0 0.30 1.32 1.32 99 1006.9
20260506172935 15 236 3.2 3.2 0.30 1.30 1.30 99 1006.8
20260506172432 15 158 0.0 0.0 0.30 1.27 1.27 99 1007.1
20260506171928 15 334 4.8 4.8 0.43 1.24 1.24 99 1007.0
20260506171426 15 32 0.0 0.0 0.30 1.22 1.22 99 1007.2
20260506170924 15 12 1.6 3.2 0.48 1.19 1.19 99 1007.3
20260506170419 15 48 1.6 1.6 0.48 1.17 1.17 99 1007.3
20260506165913 15 227 0.0 1.6 0.43 1.12 1.12 99 1007.3
20260506165411 15 352 1.6 1.6 0.61 1.09 1.09 99 1007.3
20260506164907 15 197 1.6 1.6 0.48 1.04 1.04 99 1007.0
20260506164403 15 25 1.6 1.6 0.48 0.99 0.99 99 1007.2
20260506163856 15 343 0.0 0.0 0.43 0.97 0.97 99 1007.1
20260506163349 15 229 1.6 1.6 0.13 0.91 0.91 99 1007.2
20260506162844 15 301 0.0 1.6 0.00 0.89 0.89 99 1007.4
20260506162343 15 51 1.6 1.6 0.00 0.89 0.89 99 1007.5
20260506161835 15 244 0.0 0.0 0.00 0.89 0.89 99 1007.3
20260506161332 15 262 0.0 1.6 0.00 0.89 0.89 99 1007.6
20260506160830 15 84 1.6 1.6 0.00 0.89 0.89 99 1007.3
20260506160326 15 323 3.2 3.2 0.00 0.89 0.89 99 1007.5
20260506155825 15 222 0.0 0.0 0.18 0.89 0.89 99 1007.4
20260506155320 15 81 1.6 3.2 0.18 0.89 0.89 99 1007.4
20260506153433 15 350 3.2 3.2 0.48 0.81 0.81 99 1007.6
20260506152931 15 101 3.2 3.2 0.43 0.79 0.79 99 1007.2
20260506152427 15 44 1.6 1.6 0.43 0.74 0.74 99 1007.3
20260506151926 15 266 1.6 1.6 0.61 0.71 0.71 99 1007.8
20260506151423 15 288 4.8 9.7 0.79 0.66 0.66 98 1007.9
20260506150921 15 217 6.4 11.3 0.97 0.61 0.61 98 1008.1
20260506150416 15 324 3.2 3.2 0.61 0.53 0.53 98 1008.3
20260506145914 15 249 0.0 1.6 0.30 0.46 0.46 98 1008.3
20260506145409 15 196 0.0 0.0 0.48 0.43 0.43 98 1008.0
20260506144907 15 161 0.0 1.6 0.43 0.41 0.41 98 1007.8
20260506144403 15 135 3.2 4.8 0.30 0.36 0.36 97 1007.8
20260506143902 15 357 1.6 3.2 0.30 0.33 0.33 97 1007.6
20260506143358 15 282 1.6 3.2 0.30 0.30 0.30 97 1007.9
20260506142857 15 78 0.0 0.0 0.30 0.28 0.28 97 1007.6
20260506142355 15 224 3.2 3.2 0.30 0.25 0.25 97 1007.8
20260506141853 15 152 0.0 0.0 0.30 0.23 0.23 97 1007.9
20260506141350 15 30 0.0 0.0 0.13 0.20 0.20 97 1007.8
20260506140848 15 347 0.0 0.0 0.18 0.18 0.18 96 1008.1
20260506140345 15 261 0.0 0.0 0.36 0.18 0.18 96 1008.1
20260506135842 16 212 0.0 0.0 0.18 0.15 0.15 96 1008.1
20260506135338 15 203 0.0 0.0 0.00 0.13 0.13 96 1008.1
20260506134835 15 336 0.0 0.0 0.00 0.13 0.13 96 1008.0
20260506134331 15 339 1.6 1.6 0.13 0.13 0.13 95 1008.0
20260506133829 15 232 0.0 0.0 0.13 0.13 0.13 96 1007.7
20260506133325 15 108 0.0 0.0 0.00 0.10 0.10 96 1008.0
20260506132822 15 162 0.0 0.0 0.18 0.10 0.10 96 1008.1
20260506132319 16 162 0.0 1.6 0.30 0.10 0.10 95 1008.0
20260506131817 16 165 0.0 1.6 0.13 0.08 0.08 93 1008.2
20260506131313 16 180 0.0 1.6 0.00 0.05 0.05 92 1008.3
20260506130810 16 25 1.6 3.2 0.18 0.05 0.05 91 1008.2
20260506130307 16 330 3.2 3.2 0.18 0.05 0.05 90 1008.4
20260506125805 16 124 1.6 1.6 0.00 0.03 0.03 90 1008.4
20260506125305 16 167 3.2 3.2 0.00 0.03 0.03 89 1008.7
20260506124801 16 166 1.6 1.6 0.00 0.03 0.03 88 1008.5
20260506124258 16 197 3.2 3.2 0.00 0.03 0.03 89 1008.2
20260506123755 16 149 4.8 9.7 0.00 0.03 0.03 88 1008.4
20260506123254 16 142 1.6 1.6 0.00 0.03 0.03 88 1008.3
20260506122750 16 134 0.0 0.0 0.13 0.03 0.03 88 1008.3
20260506122247 17 182 3.2 3.2 0.13 0.03 0.03 86 1008.2
20260506121745 16 106 3.2 3.2 0.00 0.00 0.00 86 1008.3
20260506121242 16 238 1.6 1.6 0.00 0.00 0.00 86 1008.3
20260506120739 17 99 1.6 1.6 0.00 0.00 0.00 85 1008.1
20260506120237 17 122 1.6 1.6 0.00 0.00 0.00 84 1007.9
20260506115735 17 334 1.6 1.6 0.00 0.00 0.00 85 1007.9
20260506115233 16 169 4.8 9.7 0.00 0.00 0.00 86 1008.1
20260506114730 16 68 1.6 1.6 0.00 0.00 0.00 85 1007.9
20260506114227 16 101 3.2 3.2 0.00 0.00 0.00 87 1007.9
20260506113726 16 213 4.8 4.8 0.00 0.00 0.00 85 1007.9
20260506113223 16 39 0.0 1.6 0.00 0.00 0.00 86 1007.7
20260506112719 17 52 1.6 1.6 0.00 0.00 0.00 85 1007.7
20260506112217 17 216 0.0 1.6 0.00 0.00 0.00 83 1007.8
20260506111714 17 183 0.0 0.0 0.00 0.00 0.00 82 1008.1
20260506111213 17 205 1.6 4.8 0.00 0.00 0.00 81 1008.0
20260506110709 17 218 4.8 9.7 0.00 0.00 0.00 80 1007.9
20260506110207 17 215 3.2 3.2 0.00 0.00 0.00 79 1007.8
20260506105703 17 240 1.6 1.6 0.00 0.00 0.00 79 1007.7
20260506105200 17 141 0.0 0.0 0.00 0.00 0.00 79 1007.6
20260506104658 17 153 3.2 3.2 0.00 0.00 0.00 77 1007.6
20260506104155 17 240 3.2 4.8 0.00 0.00 0.00 77 1007.4
20260506103652 17 280 1.6 3.2 0.00 0.00 0.00 77 1007.6
20260506103149 17 344 0.0 1.6 0.00 0.00 0.00 78 1007.6
20260506102647 17 184 1.6 1.6 0.00 0.00 0.00 77 1007.2
20260506102144 17 173 0.0 0.0 0.00 0.00 0.00 76 1007.4
20260506101641 17 16 3.2 3.2 0.00 0.00 0.00 76 1007.2
20260506101138 17 247 1.6 3.2 0.00 0.00 0.00 76 1007.2
20260506100637 17 324 0.0 1.6 0.00 0.00 0.00 76 1007.4
20260506100134 17 210 0.0 0.0 0.00 0.00 0.00 75 1007.2
20260506095633 17 2 3.2 3.2 0.00 0.00 0.00 76 1007.3
20260506095129 17 0 0.0 1.6 0.00 0.00 0.00 75 1007.4
20260506094626 17 45 1.6 1.6 0.00 0.00 0.00 74 1007.4
20260506094124 17 268 0.0 0.0 0.00 0.00 0.00 74 1007.6
20260506093622 17 79 0.0 0.0 0.00 0.00 0.00 75 1007.6
20260506093119 17 120 1.6 1.6 0.00 0.00 0.00 75 1007.5
20260506092617 17 209 0.0 0.0 0.00 0.00 0.00 75 1007.7
20260506092114 17 208 1.6 1.6 0.00 0.00 0.00 73 1007.4
20260506091612 17 91 0.0 0.0 0.00 0.00 0.00 74 1007.3
20260506091109 17 143 0.0 0.0 0.00 0.00 0.00 73 1007.7
20260506090607 17 195 1.6 1.6 0.00 0.00 0.00 73 1007.6
20260506085600 17 356 0.0 0.0 0.00 0.00 0.00 72 1007.6
20260506085056 18 352 1.6 1.6 0.00 0.00 0.00 71 1007.7
20260506084553 18 354 1.6 1.6 0.00 0.00 0.00 70 1007.6
20260506084050 18 206 4.8 4.8 0.00 0.00 0.00 70 1007.6
20260506083547 18 238 3.2 3.2 0.00 0.00 0.00 70 1007.7
20260506083044 17 24 1.6 1.6 0.00 0.00 0.00 69 1007.7
20260506082541 17 174 3.2 3.2 0.00 0.00 0.00 70 1007.6
20260506082036 17 204 1.6 1.6 0.00 0.00 0.00 72 1007.6
20260506081535 17 122 0.0 0.0 0.00 0.00 0.00 70 1007.6
20260506081032 17 178 1.6 3.2 0.00 0.00 0.00 71 1007.6
20260506080530 17 119 0.0 0.0 0.00 0.00 0.00 70 1007.5
20260506073513 16 108 0.0 0.0 0.00 0.00 0.00 73 1007.6
20260506073010 16 106 0.0 0.0 0.00 0.00 0.00 73 1007.9
20260506072507 17 106 0.0 0.0 0.00 0.00 0.00 72 1007.7
20260506072005 17 172 0.0 0.0 0.00 0.00 0.00 70 1007.8
20260506071503 17 177 0.0 0.0 0.00 0.00 0.00 71 1007.8
20260506070959 17 173 0.0 0.0 0.00 0.00 0.00 68 1007.9
20260506070456 17 177 0.0 0.0 0.00 0.00 0.00 69 1008.0
20260506062434 18 126 1.6 1.6 0.00 0.00 0.00 63 1008.4
20260506061930 18 165 1.6 1.6 0.00 0.00 0.00 62 1008.1
20260506061426 18 112 0.0 0.0 0.00 0.00 0.00 62 1008.4
20260506060925 18 75 1.6 3.2 0.00 0.00 0.00 62 1008.3
20260506060422 18 28 0.0 0.0 0.00 0.00 0.00 61 1008.3
20260506051354 20 332 4.8 4.8 0.00 0.00 0.00 58 1008.9
20260506050851 20 304 3.2 3.2 0.00 0.00 0.00 57 1008.7
20260506050349 20 348 4.8 4.8 0.00 0.00 0.00 57 1008.8
20260506044839 20 323 1.6 1.6 0.00 0.00 0.00 56 1008.7
20260506044337 20 202 6.4 8.0 0.00 0.00 0.00 55 1008.7
20260506043834 20 208 4.8 8.0 0.00 0.00 0.00 54 1008.7
20260506043331 20 173 1.6 1.6 0.00 0.00 0.00 54 1008.7
20260506042829 20 92 0.0 1.6 0.00 0.00 0.00 54 1008.8
20260506042328 20 244 1.6 1.6 0.00 0.00 0.00 53 1008.7
20260506041827 20 221 8.0 12.9 0.00 0.00 0.00 53 1008.8
20260506041323 20 269 3.2 3.2 0.00 0.00 0.00 53 1008.8
20260506040820 20 34 3.2 3.2 0.00 0.00 0.00 53 1008.7
20260506040318 21 103 1.6 1.6 0.00 0.00 0.00 52 1008.5
20260506035814 20 153 0.0 0.0 0.00 0.15 0.15 52 1009.0
20260506035311 20 75 3.2 3.2 0.00 0.15 0.15 53 1008.8
20260506034809 20 320 1.6 1.6 0.00 0.15 0.15 54 1008.7
20260506034306 20 197 3.2 3.2 0.00 0.15 0.15 53 1008.7
20260506033802 21 15 4.8 4.8 0.00 0.15 0.15 52 1008.5
20260506033259 20 277 1.6 1.6 0.00 0.15 0.15 52 1008.7
20260506032756 20 221 3.2 4.8 0.00 0.15 0.15 51 1008.3
20260506032253 20 78 1.6 3.2 0.00 0.15 0.15 53 1008.8
20260506031750 20 83 1.6 1.6 0.00 0.15 0.15 53 1008.7
20260506031247 20 97 3.2 3.2 0.00 0.15 0.15 53 1009.0
20260506030745 20 163 3.2 3.2 0.00 0.15 0.15 53 1008.5
20260506030243 20 331 0.0 0.0 0.00 0.15 0.15 54 1008.9
20260506025739 20 258 3.2 4.8 0.00 0.15 0.15 53 1008.8
20260506025236 20 274 0.0 0.0 0.00 0.15 0.15 53 1008.7
20260506024733 21 335 1.6 3.2 0.00 0.15 0.15 52 1008.5
20260506024229 21 2 0.0 0.0 0.00 0.15 0.15 52 1008.8
20260506023726 21 148 3.2 3.2 0.00 0.15 0.15 51 1008.8
20260506023223 21 239 1.6 4.8 0.00 0.15 0.15 50 1009.0
20260506022719 21 166 3.2 4.8 0.00 0.15 0.15 50 1008.9
20260506022218 21 23 1.6 3.2 0.00 0.15 0.15 49 1008.8
20260506021715 21 156 1.6 1.6 0.00 0.15 0.15 48 1008.8
20260506021212 21 30 1.6 1.6 0.00 0.15 0.15 49 1008.8
20260506020709 21 198 6.4 9.7 0.00 0.15 0.15 48 1008.8
20260506020207 22 193 4.8 8.0 0.00 0.15 0.15 47 1008.8
20260506015704 22 81 1.6 3.2 0.00 0.15 0.15 47 1008.8
20260506015201 22 201 1.6 3.2 0.00 0.15 0.15 47 1008.7
20260506014658 22 142 4.8 4.8 0.00 0.15 0.15 46 1008.8
20260506014154 22 115 1.6 1.6 0.00 0.15 0.15 47 1008.3
20260506013652 22 349 1.6 1.6 0.00 0.15 0.15 47 1008.3
20260506013149 22 84 0.0 1.6 0.00 0.15 0.15 46 1008.5
20260506012645 22 315 1.6 1.6 0.00 0.15 0.15 46 1008.3
20260506012142 22 350 3.2 3.2 0.00 0.15 0.15 46 1008.5
20260506011639 22 199 1.6 3.2 0.00 0.15 0.15 47 1008.1
20260506011135 22 13 1.6 1.6 0.00 0.15 0.15 46 1008.3
20260506010634 23 81 3.2 3.2 0.00 0.15 0.15 47 1008.0
20260506010131 22 80 1.6 1.6 0.00 0.15 0.15 46 1007.9
20260506005628 22 48 3.2 3.2 0.00 0.15 0.15 48 1007.9
20260506005124 23 61 0.0 0.0 0.00 0.15 0.15 48 1007.9
20260506004621 23 195 4.8 4.8 0.00 0.15 0.15 47 1007.9
20260506004118 23 155 0.0 0.0 0.00 0.15 0.15 47 1007.7
20260506003614 23 355 3.2 4.8 0.00 0.15 0.15 47 1007.9
20260506003111 23 329 1.6 3.2 0.00 0.15 0.15 47 1007.9
20260506002607 23 184 0.0 0.0 0.00 0.15 0.15 47 1007.8
20260506002103 23 181 1.6 1.6 0.00 0.15 0.15 46 1007.9
20260506001559 23 44 1.6 1.6 0.00 0.15 0.15 47 1007.8
20260506001056 23 173 0.0 0.0 0.00 0.15 0.15 47 1007.8